When you browse on this site, cookies collect data to enhance your experience and personalize the content and advertising you see.
Visit our Privacy Policy to learn more. By continuing to use the site, you agree to this use of cookies and data.
  • In Hungary
  • List of Countries
  • For 7 days
  • Water Temperature
  • Weather Map
  • News
  • Weather Widgets
  • user-avatar
    Login

    Hourly Weather Euclid

    Today, 23 November, Saturday

    Time Temperature Precipitation Wind Pressure Humidity
    00:00 -1°C° 0 mm 2 mps 745 mmHg 75%
    01:00 -1°C° 0 mm 3 mps 744 mmHg 76%
    02:00 -1°C° 0 mm 3 mps 744 mmHg 77%
    03:00 -1°C° 0 mm 3 mps 744 mmHg 79%
    04:00 -2°C° 0 mm 4 mps 744 mmHg 80%
    05:00 -2°C° 0 mm 3 mps 743 mmHg 79%
    06:00 -2°C° 0 mm 3 mps 743 mmHg 79%
    07:00 -2°C° 0 mm 2 mps 743 mmHg 79%
    08:00 -1°C° 0 mm 2 mps 742 mmHg 73%
    09:00 0°C° 0 mm 3 mps 741 mmHg 68%
    10:00 +1°C° 0 mm 3 mps 741 mmHg 63%
    11:00 +4°C° 0 mm 2 mps 740 mmHg 56%
    12:00 +6°C° 0 mm 1 mps 739 mmHg 50%
    13:00 +8°C° 0 mm 1 mps 738 mmHg 43%
    14:00 +8°C° 0 mm 1 mps 737 mmHg 47%
    15:00 +7°C° 0 mm 1 mps 736 mmHg 51%
    16:00 +7°C° 0 mm 1 mps 736 mmHg 55%
    17:00 +6°C° 0.6 mm 1 mps 735 mmHg 65%
    18:00 +5°C° 0.6 mm 1 mps 735 mmHg 75%
    19:00 +3°C° 0.6 mm 1 mps 735 mmHg 85%
    20:00 +3°C° 0.3 mm 1 mps 734 mmHg 89%
    21:00 +2°C° 0.3 mm 2 mps 734 mmHg 92%
    22:00 +1°C° 0.3 mm 3 mps 734 mmHg 95%
    23:00 0°C° 0 mm 4 mps 734 mmHg 93%

    Tomorrow, 24 November, Sunday

    Time Temperature Precipitation Wind Pressure Humidity
    00:00 +1°C° 0 mm 4 mps 734 mmHg 90%
    01:00 +1°C° 0 mm 5 mps 734 mmHg 87%
    02:00 +1°C° 0 mm 5 mps 734 mmHg 87%
    03:00 0°C° 0 mm 5 mps 734 mmHg 87%
    04:00 0°C° 0 mm 5 mps 735 mmHg 86%
    05:00 -1°C° 0 mm 6 mps 735 mmHg 87%
    06:00 -2°C° 0 mm 6 mps 735 mmHg 87%
    07:00 -2°C° 0 mm 6 mps 735 mmHg 88%
    08:00 -2°C° 0 mm 6 mps 735 mmHg 85%
    09:00 -1°C° 0 mm 6 mps 736 mmHg 82%
    10:00 -1°C° 0 mm 6 mps 736 mmHg 80%
    11:00 +1°C° 0 mm 6 mps 736 mmHg 76%
    12:00 +2°C° 0 mm 6 mps 735 mmHg 72%
    13:00 +3°C° 0 mm 6 mps 735 mmHg 68%
    14:00 +3°C° 0 mm 6 mps 735 mmHg 70%
    15:00 +3°C° 0 mm 6 mps 735 mmHg 72%
    16:00 +3°C° 0 mm 6 mps 735 mmHg 73%
    17:00 +2°C° 0 mm 6 mps 735 mmHg 77%
    18:00 +1°C° 0 mm 6 mps 736 mmHg 82%
    19:00 +1°C° 0 mm 6 mps 736 mmHg 86%
    20:00 -1°C° 0 mm 6 mps 736 mmHg 87%
    21:00 -1°C° 0 mm 6 mps 736 mmHg 87%
    22:00 -1°C° 0 mm 6 mps 737 mmHg 88%
    23:00 0°C° 0 mm 5 mps 737 mmHg 88%

    Day after tomorrow, 25 November, Monday

    Time Temperature Precipitation Wind Pressure Humidity
    00:00 0°C° 0 mm 5 mps 737 mmHg 89%
    01:00 0°C° 0 mm 5 mps 737 mmHg 90%
    02:00 0°C° 0 mm 5 mps 737 mmHg 90%
    03:00 0°C° 0 mm 4 mps 737 mmHg 90%
    04:00 0°C° 0 mm 4 mps 737 mmHg 90%
    05:00 0°C° 0 mm 5 mps 737 mmHg 90%
    06:00 0°C° 0 mm 5 mps 737 mmHg 90%
    07:00 0°C° 0 mm 5 mps 737 mmHg 91%
    08:00 +1°C° 0 mm 6 mps 737 mmHg 87%
    09:00 +1°C° 0 mm 6 mps 737 mmHg 84%
    10:00 +2°C° 0 mm 6 mps 737 mmHg 81%
    11:00 +4°C° 0 mm 6 mps 737 mmHg 78%
    12:00 +5°C° 0 mm 6 mps 737 mmHg 75%
    13:00 +7°C° 0 mm 6 mps 736 mmHg 72%
    14:00 +7°C° 0 mm 6 mps 736 mmHg 72%
    15:00 +7°C° 0 mm 6 mps 736 mmHg 73%
    16:00 +7°C° 0 mm 5 mps 736 mmHg 74%
    17:00 +7°C° 0 mm 6 mps 737 mmHg 76%
    18:00 +5°C° 0 mm 6 mps 737 mmHg 79%
    19:00 +4°C° 0 mm 6 mps 737 mmHg 81%
    20:00 +4°C° 0 mm 6 mps 738 mmHg 82%
    21:00 +4°C° 0 mm 6 mps 738 mmHg 83%
    22:00 +4°C° 0 mm 6 mps 738 mmHg 84%
    23:00 +4°C° 0 mm 6 mps 738 mmHg 86%

    26 November, Tuesday

    Time Temperature Precipitation Wind Pressure Humidity
    00:00 +5°C° 0 mm 5 mps 738 mmHg 87%
    01:00 +3°C° 0 mm 5 mps 739 mmHg 89%
    02:00 +3°C° 0 mm 5 mps 739 mmHg 90%
    03:00 +3°C° 0 mm 5 mps 739 mmHg 91%
    04:00 +4°C° 0 mm 4 mps 739 mmHg 92%
    05:00 +4°C° 0 mm 4 mps 739 mmHg 93%
    06:00 +3°C° 0 mm 4 mps 740 mmHg 94%
    07:00 +3°C° 0 mm 4 mps 740 mmHg 94%
    08:00 +4°C° 0 mm 4 mps 740 mmHg 90%
    09:00 +5°C° 0 mm 4 mps 740 mmHg 87%
    10:00 +6°C° 0 mm 4 mps 741 mmHg 83%
    11:00 +7°C° 0 mm 4 mps 740 mmHg 77%
    12:00 +10°C° 0 mm 4 mps 739 mmHg 72%
    13:00 +11°C° 0 mm 4 mps 738 mmHg 66%
    14:00 +11°C° 0 mm 4 mps 738 mmHg 65%
    15:00 +11°C° 0 mm 4 mps 737 mmHg 64%
    16:00 +11°C° 0 mm 4 mps 737 mmHg 63%
    17:00 +10°C° 0.1 mm 5 mps 736 mmHg 61%
    18:00 +10°C° 0.1 mm 5 mps 736 mmHg 60%
    19:00 +10°C° 0.1 mm 6 mps 736 mmHg 58%
    20:00 +9°C° 0.9 mm 7 mps 735 mmHg 64%
    21:00 +9°C° 0.9 mm 7 mps 734 mmHg 70%
    22:00 +9°C° 0.9 mm 8 mps 734 mmHg 76%
    23:00 +10°C° 0.4 mm 8 mps 733 mmHg 78%

    27 November, Wednesday

    Time Temperature Precipitation Wind Pressure Humidity
    00:00 +11°C° 0.4 mm 9 mps 732 mmHg 81%
    01:00 +12°C° 0.4 mm 9 mps 731 mmHg 84%
    02:00 +11°C° 1.5 mm 11 mps 731 mmHg 81%
    03:00 +9°C° 1.5 mm 12 mps 732 mmHg 78%
    04:00 +9°C° 1.5 mm 13 mps 732 mmHg 76%
    05:00 +8°C° 0 mm 13 mps 734 mmHg 77%
    06:00 +5°C° 0 mm 13 mps 736 mmHg 79%
    07:00 +4°C° 0 mm 12 mps 738 mmHg 80%
    08:00 +4°C° 0 mm 12 mps 740 mmHg 80%
    09:00 +3°C° 0 mm 11 mps 742 mmHg 79%
    10:00 +3°C° 0 mm 11 mps 744 mmHg 79%
    11:00 +2°C° 0 mm 10 mps 745 mmHg 76%
    12:00 +2°C° 0 mm 9 mps 746 mmHg 73%
    13:00 +2°C° 0 mm 8 mps 747 mmHg 70%
    14:00 +2°C° 0 mm 8 mps 747 mmHg 69%
    15:00 +3°C° 0 mm 7 mps 748 mmHg 68%
    16:00 +3°C° 0 mm 7 mps 749 mmHg 67%
    17:00 +3°C° 0 mm 7 mps 749 mmHg 68%
    18:00 +2°C° 0 mm 7 mps 750 mmHg 69%
    19:00 +2°C° 0 mm 6 mps 751 mmHg 71%
    20:00 +2°C° 0 mm 7 mps 751 mmHg 71%
    21:00 +2°C° 0 mm 7 mps 752 mmHg 71%
    22:00 0°C° 0 mm 7 mps 753 mmHg 71%
    23:00 0°C° 0 mm 7 mps 753 mmHg 72%

    28 November, Thursday

    Time Temperature Precipitation Wind Pressure Humidity
    00:00 -1°C° 0 mm 6 mps 753 mmHg 73%
    01:00 -2°C° 0 mm 6 mps 754 mmHg 75%
    02:00 -2°C° 0 mm 6 mps 754 mmHg 74%
    03:00 -2°C° 0 mm 6 mps 754 mmHg 74%
    04:00 -1°C° 0 mm 5 mps 754 mmHg 73%
    05:00 -1°C° 0 mm 5 mps 755 mmHg 72%
    06:00 -1°C° 0 mm 5 mps 755 mmHg 72%
    07:00 -1°C° 0 mm 5 mps 755 mmHg 71%
    08:00 0°C° 0 mm 5 mps 755 mmHg 70%
    09:00 0°C° 0 mm 4 mps 756 mmHg 69%
    10:00 0°C° 0 mm 4 mps 756 mmHg 67%
    11:00 +1°C° 0 mm 4 mps 756 mmHg 66%
    12:00 +1°C° 0 mm 4 mps 756 mmHg 64%
    13:00 +1°C° 0 mm 4 mps 756 mmHg 63%
    14:00 +1°C° 0 mm 4 mps 755 mmHg 64%
    15:00 +1°C° 0 mm 4 mps 755 mmHg 65%
    16:00 +1°C° 0 mm 4 mps 755 mmHg 66%
    17:00 0°C° 0 mm 4 mps 755 mmHg 69%
    18:00 -1°C° 0 mm 4 mps 755 mmHg 71%
    19:00 -1°C° 0 mm 4 mps 756 mmHg 74%
    20:00 -1°C° 0 mm 3 mps 756 mmHg 73%
    21:00 -1°C° 0 mm 3 mps 756 mmHg 73%
    22:00 -1°C° 0 mm 3 mps 756 mmHg 73%
    23:00 -1°C° 0 mm 2 mps 755 mmHg 73%
    Show more